Location: Peebles
(55.6412°N, 3.1714°W)
Time: 15:11:45
(UTC+01:00)

Cosmos 2366 rocket - Pass Details

Date: 26 September 2021
Orbit: 955 x 997 km, 82.9° (Epoch: 17 October)

Event Time Altitude Azimuth Distance (km) Brightness Sun altitude
Rises 21:24:11 0° 187° (S) 3,626 6.8 -20.3°
Reaches altitude 10° 21:26:40 10° 187° (S) 2,682 6.1 -20.6°
Maximum altitude 21:32:48 87° 99° (E) 966 3.9 -21.4°
Drops below altitude 10° 21:39:00 10° 12° (NNE) 2,704 6.6 -22.1°
Sets 21:41:31 0° 12° (NNE) 3,658 7.3 -22.4°
